Temp
46 43 41 47 45 44 43 40 41 44 48 46 45 45 43 40 39 37 37 38 38 39 41 42 42 42 44 44 45 45 46 47 50 48 48 46 44 46 45 46 46 46 46 47
42 39 50 48 45 45 42 40 40 44 47 45 44 43 39 38 38 39 38 38 38 39 39 40 40 40 40 41 43 44 45 46 47 47 45 45 45 44 44 44 44 45 45 45
42 45 48 48 43 41 39 39 38 42 42 43 40 39 35 36 37 38 38 38 38 38 37 38 38 38 39 39 40 42 43 44 45 45 46 45 44 44 43 42 42 42 44 43
43 47 46 42 42 45 36 43 42 41 38 34 40 31 35 34 33 35 35 36 36 37 37 37 37 38 38 37 39 41 41 43 42 44 43 42 41 39 40 40 40 41 42 42
43 42 42 41 44 45 41 42 41 39 36 33 34 32 35 33 30 32 33 35 35 36 36 36 36 37 37 37 37 39 41 40 40 40 42 41 39 38 39 39 40 40 41 40
42 45 45 45 44 46 43 40 38 35 34 27 35 36 35 29 34 33 34 35 35 35 35 36 36 37 37 37 37 38 39 39 39 40 40 40 39 38 38 38 38 38 38 39
39 41 43 45 40 41 41 38 29 27 25 27 33 31 39 36 37 38 34 35 35 35 34 35 35 35 36 36 37 38 39 37 38 39 39 39 38 38 37 37 37 36 36 36
34 32 41 44 43 39 36 38 30 22 22 27 32 29 37 34 36 39 39 38 35 34 35 35 35 35 36 36 36 37 37 36 37 38 37 38 38 37 36 36 36 35 35 35
33 34 40 41 43 44 38 34 40 29 16 22 30 34 32 33 32 35 35 34 34 34 34 35 35 35 35 36 36 37 37 36 37 37 37 36 36 36 35 35 36 35 35 36
41 34 37 39 43 41 40 42 33 30 20 17 27 30 34 29 29 31 33 33 34 34 34 34 35 35 35 36 36 37 37 37 36 36 35 35 34 34 34 35 34 34 34 33
42 39 33 38 36 36 35 34 34 35 31 23 19 29 36 35 33 31 34 36 35 34 35 35 35 35 35 35 35 35 35 35 35 35 34 34 33 33 33 33 32 32 32 31
43 39 28 32 35 36 36 36 36 32 24 24 25 28 35 35 36 35 35 37 36 36 35 35 35 34 33 34 34 34 34 34 33 33 32 32 32 31 30 30 30 30 29 30
41 35 27 30 32 33 33 35 34 33 30 22 24 27 34 34 34 36 36 37 36 34 33 33 32 32 33 33 32 32 31 31 31 31 31 30 29 29 28 28 29 29 28 27
45 34 32 34 32 32 29 32 33 35 23 26 32 29 32 31 33 33 35 36 34 34 34 33 31 32 32 32 31 30 29 30 29 29 29 28 27 27 27 27 27 26 26 25
40 32 30 30 30 32 29 29 31 30 35 32 31 33 35 37 36 35 37 35 33 34 32 32 32 32 31 30 30 29 28 28 28 27 27 26 27 27 26 25 25 24 23 23
34 31 32 28 27 28 27 29 30 31 31 30 30 32 38 37 33 31 33 33 34 34 34 34 34 33 32 32 29 30 27 26 27 26 26 26 25 24 24 23 21 21 20 19
31 29 28 25 23 25 25 28 29 30 29 34 29 38 31 31 33 34 33 34 35 35 34 33 34 34 33 32 32 27 26 26 25 25 24 23 22 21 20 19 18 17 16 16
30 29 28 19 21 17 27 26 28 32 30 33 29 27 31 32 31 33 33 35 34 33 33 33 33 31 31 29 27 26 25 24 23 22 20 21 19 17 17 15 14 14 14 12
30 28 19 19 20 23 28 26 27 29 30 33 34 30 27 29 31 30 32 32 33 32 32 32 32 30 27 26 25 23 22 22 20 19 19 18 16 13 13 9 11 11 10 9
28 27 30 16 18 17 22 22 27 28 21 27 30 26 25 28 25 29 31 31 31 32 32 31 30 27 25 24 23 21 20 19 18 18 17 16 14 9 8 9 8 9 8 8
21 21 24 19 21 22 25 26 28 20 24 23 26 24 24 25 28 32 30 29 31 31 30 28 25 26 24 22 20 19 18 17 17 16 14 12 11 7 7 7 7 6 5 6
20 20 16 16 16 16 26 25 25 29 28 28 25 26 27 29 29 29 29 29 29 28 26 25 22 22 20 20 19 17 16 16 13 12 10 6 3 4 6 1 3 3 3 2
17 22 19 21 22 24 29 26 31 31 29 28 28 28 30 28 28 28 28 26 26 26 25 22 21 18 17 17 16 14 14 12 9 5 -1 -2 0 3 3 -0 1 2 2 2
18 21 19 19 22 24 29 29 30 30 31 31 30 29 28 28 28 27 26 26 25 23 22 19 17 16 14 13 15 13 11 9 1 -4 -3 -0 -1 0 0 3 4 2 1 1
21 22 15 15 24 26 29 30 31 31 29 28 28 29 29 27 22 25 24 24 24 23 19 18 18 17 15 12 11 9 8 3 1 -1 0 0 1 -1 0 2 2 3 6 7
23 20 19 18 29 30 31 34 32 29 28 28 28 25 26 27 27 24 23 24 22 20 16 16 15 14 11 10 8 4 1 -0 -3 -1 1 0 0 -0 1 0 0 7 11 14
MSLP
1018.70 1019.39 1019.23 1018.72 1019.11 1019.47 1019.92 1020.30 1020.21 1019.77 1019.39 1019.80 1020.25 1021.13 1022.33 1024.00 1024.91 1025.72 1026.17 1026.49 1026.68 1026.85 1027.03 1026.85 1026.67 1026.25 1025.76 1025.17 1024.72 1024.79 1024.61 1024.67 1024.29 1024.50 1024.90 1025.81 1026.62 1027.33 1027.35 1027.72 1027.89 1027.61 1027.70 1027.58
1019.34 1018.82 1017.96 1018.43 1019.19 1019.68 1020.03 1020.41 1020.43 1020.00 1019.70 1020.21 1020.56 1021.49 1022.77 1024.05 1025.12 1025.78 1026.27 1026.79 1027.01 1027.29 1027.30 1027.34 1027.24 1026.94 1026.59 1026.31 1026.01 1025.59 1025.45 1025.45 1025.36 1025.39 1026.19 1026.77 1027.50 1028.44 1028.84 1028.98 1028.89 1028.95 1028.88 1028.85
1018.02 1017.66 1017.67 1018.39 1019.29 1019.84 1020.10 1020.42 1020.44 1020.33 1020.23 1020.42 1021.02 1021.72 1022.92 1024.47 1025.40 1026.21 1026.78 1027.20 1027.47 1027.72 1027.88 1028.06 1028.07 1027.99 1027.70 1027.27 1027.08 1026.84 1026.76 1026.46 1026.54 1026.74 1026.99 1027.53 1028.04 1028.79 1029.14 1029.52 1029.68 1029.93 1029.83 1029.92
1017.89 1017.44 1017.86 1018.46 1018.88 1019.27 1019.72 1019.65 1020.04 1020.54 1021.07 1021.31 1021.45 1021.91 1022.62 1024.04 1025.45 1026.38 1026.99 1027.49 1027.84 1028.15 1028.35 1028.57 1028.73 1028.64 1028.46 1028.30 1028.12 1027.79 1027.47 1027.28 1027.44 1027.47 1027.65 1028.17 1028.80 1029.52 1030.49 1030.55 1030.70 1030.59 1030.52 1030.57
1016.91 1017.43 1017.74 1018.02 1018.07 1018.65 1019.15 1019.42 1020.17 1020.76 1021.30 1021.74 1022.07 1023.00 1021.99 1023.76 1025.07 1025.95 1026.77 1027.41 1027.99 1028.40 1028.63 1028.91 1028.91 1029.08 1029.13 1028.97 1028.78 1028.69 1028.53 1028.56 1028.77 1028.64 1028.62 1028.98 1029.68 1030.48 1030.99 1031.06 1030.90 1030.97 1031.02 1031.12
1017.12 1017.07 1017.23 1017.15 1017.82 1018.21 1019.23 1019.93 1020.78 1021.48 1021.93 1021.96 1021.26 1022.04 1021.50 1022.68 1022.77 1024.79 1026.16 1027.01 1027.67 1028.34 1028.79 1029.16 1029.25 1029.13 1029.37 1029.58 1029.35 1029.22 1029.24 1029.61 1029.59 1029.66 1029.77 1029.93 1030.37 1030.84 1031.03 1031.39 1031.47 1031.52 1031.48 1031.48
1017.33 1017.03 1016.87 1016.92 1017.94 1018.62 1018.96 1019.96 1021.36 1022.08 1022.30 1021.22 1021.01 1021.87 1020.06 1020.88 1021.92 1022.77 1024.56 1026.01 1026.99 1027.88 1028.57 1029.04 1029.34 1029.43 1029.58 1029.72 1029.87 1029.81 1029.74 1030.11 1030.26 1030.23 1030.50 1030.81 1031.04 1031.20 1031.44 1031.73 1031.97 1032.07 1032.04 1031.93
1017.12 1016.82 1016.30 1016.21 1016.42 1017.38 1018.44 1018.87 1020.02 1020.83 1021.67 1021.26 1021.28 1020.89 1019.94 1021.25 1022.05 1022.86 1024.17 1025.46 1026.73 1027.73 1028.25 1028.75 1029.12 1029.22 1029.40 1029.71 1029.89 1030.15 1029.97 1030.27 1030.59 1030.70 1030.91 1031.32 1031.46 1031.62 1031.84 1031.95 1032.08 1031.78 1031.92 1032.16
1016.29 1016.18 1015.56 1015.64 1015.83 1016.31 1018.04 1018.52 1018.56 1020.29 1022.29 1021.84 1020.26 1019.92 1020.54 1021.52 1022.45 1023.30 1024.38 1025.63 1026.61 1027.38 1028.03 1028.61 1029.03 1029.08 1029.23 1029.53 1029.76 1029.95 1030.54 1030.38 1030.78 1031.00 1031.10 1031.27 1031.56 1031.64 1031.79 1031.84 1031.95 1031.97 1032.05 1032.36
1014.84 1015.64 1015.83 1015.93 1015.91 1016.47 1016.52 1016.96 1018.62 1019.70 1021.14 1021.37 1020.04 1019.95 1019.66 1021.16 1022.26 1023.21 1024.07 1024.89 1025.88 1026.83 1027.60 1028.14 1028.51 1028.80 1029.14 1029.50 1029.74 1030.15 1030.43 1030.33 1030.93 1030.88 1031.08 1031.41 1031.74 1031.98 1032.15 1032.13 1032.40 1032.45 1032.76 1032.76
1014.47 1015.16 1016.39 1016.37 1016.17 1015.97 1016.94 1017.13 1017.85 1018.58 1019.39 1019.83 1020.10 1018.73 1018.15 1019.16 1020.63 1021.87 1023.09 1024.04 1024.78 1025.65 1026.64 1027.56 1028.14 1028.22 1028.55 1029.03 1029.67 1029.91 1030.77 1030.45 1031.05 1031.02 1031.34 1031.66 1032.16 1032.81 1032.87 1032.88 1033.07 1032.85 1032.78 1032.50
1013.77 1014.64 1016.22 1016.25 1016.05 1015.96 1015.90 1016.18 1016.40 1017.29 1018.93 1019.39 1019.70 1018.29 1018.43 1018.81 1019.71 1021.21 1022.35 1023.08 1024.03 1024.86 1025.83 1026.60 1027.74 1028.38 1028.39 1029.17 1029.55 1029.59 1030.67 1030.64 1031.00 1031.18 1031.67 1032.19 1032.68 1032.98 1032.88 1033.09 1032.98 1032.85 1032.79 1032.69
1013.17 1014.32 1016.04 1016.61 1016.84 1016.63 1016.19 1016.17 1016.25 1016.69 1017.41 1018.03 1019.11 1018.06 1018.53 1018.79 1019.80 1020.73 1021.37 1022.36 1023.47 1024.58 1025.34 1026.35 1027.41 1027.89 1028.08 1028.70 1029.02 1029.93 1030.28 1030.67 1031.17 1031.54 1031.84 1032.36 1032.57 1032.56 1032.56 1032.75 1032.91 1032.87 1032.90 1032.83
1012.34 1013.90 1013.76 1013.91 1014.74 1014.97 1016.16 1016.08 1016.28 1016.43 1017.27 1017.28 1016.43 1017.58 1018.50 1019.24 1019.79 1020.46 1021.10 1021.88 1023.11 1023.86 1024.82 1025.82 1026.68 1027.18 1027.91 1028.45 1029.07 1029.95 1030.55 1030.88 1031.31 1031.52 1031.81 1032.19 1032.47 1032.57 1032.71 1032.90 1033.10 1033.27 1033.24 1033.13
1013.37 1014.24 1014.73 1015.08 1015.57 1015.58 1015.81 1015.99 1016.16 1016.35 1015.79 1016.40 1016.33 1016.94 1017.38 1018.02 1018.78 1019.24 1019.59 1021.35 1022.78 1023.37 1024.26 1024.98 1026.03 1026.72 1027.40 1028.29 1029.06 1029.66 1030.47 1030.73 1031.31 1031.61 1031.82 1032.17 1032.44 1032.58 1032.74 1032.90 1033.23 1033.39 1033.32 1033.12
1014.44 1014.91 1015.29 1016.21 1016.69 1016.71 1016.82 1016.61 1016.70 1016.45 1016.40 1016.51 1016.66 1016.71 1016.62 1017.28 1018.24 1019.24 1019.79 1020.73 1021.73 1022.35 1023.19 1024.43 1025.35 1026.12 1026.95 1027.84 1028.66 1029.40 1030.22 1030.90 1031.40 1031.36 1031.63 1032.14 1032.52 1032.84 1033.03 1033.18 1033.22 1033.14 1033.02 1032.87
1015.05 1015.64 1016.38 1017.34 1017.69 1017.60 1017.33 1015.83 1016.42 1016.35 1016.19 1016.16 1016.63 1015.83 1017.01 1017.89 1018.28 1018.42 1019.09 1020.18 1020.61 1021.34 1022.68 1023.79 1024.48 1025.39 1026.34 1027.27 1028.15 1029.18 1030.12 1030.84 1031.07 1031.23 1031.80 1032.30 1032.77 1033.02 1033.21 1033.33 1033.30 1033.25 1033.12 1032.91
1015.60 1016.22 1016.82 1018.16 1018.39 1017.93 1016.10 1016.04 1015.93 1015.86 1015.97 1016.23 1016.50 1016.57 1017.04 1017.35 1017.86 1018.37 1018.97 1019.42 1020.37 1021.32 1022.30 1023.31 1024.28 1025.23 1026.09 1027.01 1028.01 1029.13 1030.07 1030.52 1031.00 1031.44 1032.02 1032.58 1033.03 1033.31 1033.39 1033.37 1033.32 1033.19 1033.09 1032.89
1015.81 1016.32 1017.45 1018.12 1018.08 1017.40 1016.31 1016.36 1016.39 1016.14 1016.02 1015.97 1016.47 1017.01 1017.67 1018.04 1018.40 1018.90 1019.09 1019.65 1020.32 1021.16 1022.06 1022.93 1023.84 1024.99 1026.03 1026.92 1027.99 1028.95 1029.84 1030.45 1031.06 1031.58 1032.15 1032.68 1033.06 1033.32 1033.43 1033.46 1033.30 1033.18 1032.96 1032.69
1017.05 1016.81 1016.77 1018.07 1017.72 1017.18 1016.09 1015.92 1015.61 1015.81 1016.13 1015.71 1016.41 1017.34 1018.07 1018.57 1019.18 1018.97 1019.14 1019.80 1020.86 1021.59 1022.07 1022.86 1023.89 1025.07 1026.15 1027.10 1027.95 1028.87 1029.69 1030.33 1030.99 1031.51 1032.06 1032.64 1033.08 1033.28 1033.37 1033.38 1033.19 1033.00 1032.92 1032.47
1017.84 1017.57 1016.92 1017.27 1017.06 1016.10 1015.58 1015.95 1015.93 1016.39 1016.19 1016.07 1016.86 1017.40 1018.18 1018.62 1018.37 1018.40 1018.79 1019.92 1020.57 1021.39 1022.35 1023.14 1024.18 1025.04 1025.89 1027.08 1027.98 1028.84 1029.62 1030.33 1030.87 1031.54 1032.18 1032.64 1032.94 1033.13 1033.15 1033.15 1033.06 1032.95 1032.74 1032.33
1017.08 1017.33 1017.59 1017.76 1017.27 1016.47 1015.22 1016.48 1016.11 1014.83 1015.28 1016.20 1016.87 1017.13 1017.79 1018.19 1018.48 1018.85 1019.29 1020.20 1021.01 1021.67 1022.60 1023.56 1024.47 1025.28 1026.07 1026.98 1027.85 1028.84 1029.66 1030.26 1030.97 1031.59 1032.09 1032.55 1032.88 1033.12 1033.20 1033.20 1033.12 1032.82 1032.44 1031.98
1017.09 1015.78 1016.17 1016.35 1015.37 1014.66 1014.62 1014.63 1014.26 1014.32 1015.15 1015.81 1016.16 1016.65 1017.24 1018.14 1018.79 1019.11 1019.45 1020.27 1021.00 1021.74 1022.71 1023.53 1024.31 1025.36 1026.31 1027.01 1027.68 1028.64 1029.32 1030.21 1030.99 1031.67 1032.28 1032.70 1033.01 1033.12 1033.04 1032.93 1032.61 1032.32 1031.97 1031.54
1016.12 1015.79 1015.84 1016.07 1015.40 1015.00 1014.79 1014.50 1014.48 1014.55 1014.50 1014.85 1015.43 1016.09 1016.94 1017.62 1018.18 1018.73 1019.44 1020.33 1021.13 1021.81 1022.60 1023.43 1024.49 1025.33 1026.24 1026.95 1027.63 1028.27 1029.22 1030.06 1030.99 1031.94 1032.38 1032.62 1032.80 1032.74 1032.54 1032.45 1032.16 1031.86 1031.40 1030.78
1015.18 1015.45 1015.75 1015.78 1015.29 1015.03 1014.49 1014.07 1013.93 1014.25 1014.93 1015.37 1015.83 1016.27 1016.76 1017.41 1018.09 1018.55 1019.43 1020.19 1020.60 1021.31 1022.28 1023.14 1023.83 1024.62 1025.54 1026.65 1027.53 1028.29 1029.12 1030.01 1030.98 1031.67 1032.00 1032.22 1032.30 1032.29 1032.18 1032.01 1031.59 1031.08 1030.51 1029.93
1014.29 1014.41 1014.75 1014.11 1013.57 1013.22 1012.92 1012.85 1013.28 1014.26 1014.73 1015.21 1015.88 1016.37 1016.68 1017.20 1017.78 1018.48 1019.16 1019.48 1020.27 1021.15 1021.85 1022.83 1023.57 1024.38 1025.26 1026.28 1027.29 1028.28 1029.07 1029.91 1030.76 1031.37 1031.56 1031.80 1032.00 1031.98 1031.86 1031.55 1030.98 1030.39 1029.49 1028.63
Wind_Speed
1 4 10 17 10 4 6 5 5 4 3 4 8 6 1 4 6 7 7 8 8 8 5 9 10 11 11 13 14 14 14 13 8 7 7 9 10 9 12 11 15 16 15 15
3 10 11 5 6 5 3 4 6 4 4 4 6 8 1 4 2 3 8 7 8 6 8 9 11 11 12 11 12 13 13 13 11 7 7 7 7 9 8 9 13 14 15 14
10 4 9 8 5 6 5 7 6 7 2 3 2 5 5 3 5 5 5 5 5 6 8 8 10 10 10 13 11 12 12 13 11 10 8 7 6 6 8 9 9 11 13 13
8 4 6 5 6 8 6 9 7 6 4 5 1 6 4 4 5 4 6 5 5 6 6 6 6 8 9 9 8 11 11 12 11 11 12 14 10 10 6 7 6 8 12 13
7 8 5 5 9 7 5 6 8 4 3 1 2 1 4 6 6 8 8 7 6 5 6 6 6 6 6 6 8 9 12 13 11 10 12 11 12 8 5 6 10 10 10 12
3 1 6 9 3 7 9 7 6 4 3 3 11 10 5 8 8 11 9 8 9 8 7 5 4 5 6 5 6 7 12 11 10 11 11 12 11 8 7 7 7 6 5 6
0 5 4 5 6 3 3 6 1 1 1 7 1 4 8 6 4 16 20 16 12 10 8 8 7 6 5 6 5 6 9 10 8 10 10 9 9 9 9 7 6 5 5 5
8 6 12 7 9 10 8 8 6 8 6 3 2 7 6 1 3 6 15 14 11 10 8 8 8 7 7 6 6 6 8 8 6 7 8 6 7 5 5 5 4 5 6 5
7 7 1 3 4 9 7 7 4 6 2 3 6 4 1 3 3 12 15 13 13 11 10 9 7 7 7 7 7 7 6 6 6 6 5 6 6 7 7 8 8 6 8 7
6 2 2 3 4 2 4 9 3 2 2 5 4 5 6 8 11 11 16 18 15 11 10 9 9 8 6 6 5 5 5 6 4 5 5 5 5 6 6 7 8 8 6 6
6 4 1 4 7 10 4 4 3 4 5 6 2 6 5 8 15 20 18 18 17 16 14 11 9 8 8 6 6 6 4 6 4 5 5 6 6 5 4 4 3 3 4 6
10 4 4 9 2 1 2 8 8 7 5 2 3 7 1 3 13 16 18 18 15 15 14 12 11 9 8 7 6 6 4 5 4 5 5 6 4 3 3 3 5 5 7 7
10 5 2 5 1 2 6 5 4 5 4 8 6 6 2 5 10 14 19 18 13 12 10 9 8 10 9 8 6 6 6 6 5 5 5 4 3 3 5 6 7 8 9 9
7 5 9 14 4 6 7 7 6 8 5 6 13 4 4 5 10 11 14 13 14 14 14 12 9 10 9 7 7 6 6 5 5 4 4 4 4 4 4 4 5 6 7 7
5 7 4 2 3 3 1 5 10 10 11 10 5 11 8 13 15 18 16 11 14 16 14 13 12 11 8 7 7 7 6 5 4 4 4 4 3 4 4 5 6 6 7 8
3 2 3 4 3 3 4 6 6 5 1 4 3 10 6 4 7 8 12 15 16 14 14 13 12 11 11 10 9 9 7 5 4 4 5 4 4 4 5 6 8 9 10 10
7 6 3 3 3 3 5 9 10 7 6 8 11 13 6 5 8 12 13 14 17 12 11 13 14 12 10 11 11 9 7 5 4 5 4 3 3 4 6 7 8 9 10 10
6 5 2 3 2 4 3 3 3 11 4 7 1 4 7 5 3 4 6 12 8 8 10 10 9 7 7 7 7 8 7 5 5 4 3 2 2 3 5 6 8 8 9 10
2 6 4 5 5 5 2 7 8 9 10 11 12 6 3 4 4 2 5 5 9 9 7 8 7 6 7 9 9 9 6 5 5 3 3 2 2 3 5 5 8 8 9 10
1 4 5 4 6 8 6 3 5 4 6 7 8 8 9 6 4 5 8 7 7 8 7 8 8 6 9 8 9 8 6 5 5 4 3 1 1 1 3 6 8 7 8 11
3 1 8 5 5 7 5 5 3 7 7 4 6 6 8 6 5 4 8 5 6 7 8 7 8 10 9 10 9 7 6 5 4 4 2 1 2 3 5 5 7 7 8 10
8 9 4 3 2 10 7 5 10 6 2 6 6 8 10 5 5 4 7 8 10 10 8 7 8 8 8 9 9 7 6 5 5 4 2 1 3 4 5 5 7 7 8 8
4 7 7 10 8 2 13 4 6 5 6 7 7 8 9 9 7 8 8 9 10 10 7 6 8 8 6 8 7 8 6 7 5 4 2 1 3 4 5 5 7 7 6 7
5 3 3 4 3 4 11 4 3 7 6 4 3 6 9 8 10 9 6 7 8 8 8 7 9 9 9 8 7 5 8 6 6 4 2 3 3 4 4 5 6 6 6 7
4 7 6 2 3 2 8 10 10 8 4 3 4 6 8 6 3 7 7 8 9 9 7 9 12 11 11 10 8 7 7 7 5 4 3 3 3 3 5 5 5 6 7 9
6 8 6 6 9 7 6 12 8 9 9 9 8 5 5 9 10 7 7 8 8 10 7 9 9 9 10 10 9 7 6 7 6 4 2 2 3 3 4 5 6 11 15 17
Wind_Direction
102 124 207 203 195 138 141 179 193 234 243 178 228 243 37 109 110 126 113 101 87 68 25 34 29 26 36 43 54 47 46 38 57 61 73 65 67 58 54 50 47 46 42 41
80 223 220 137 153 164 155 166 232 280 228 169 254 253 351 29 72 137 134 117 106 91 56 41 33 34 39 48 51 59 65 63 64 74 81 85 87 68 67 55 50 45 46 45
180 202 159 143 142 159 205 187 204 220 0 235 325 253 205 56 96 102 91 107 94 93 85 54 47 33 41 45 43 57 58 64 65 75 91 87 78 75 63 51 56 47 53 50
235 213 139 156 184 174 222 204 179 182 136 233 124 282 234 166 148 152 143 136 122 108 86 74 58 56 54 43 43 60 68 74 69 76 82 82 86 86 70 70 67 57 51 51
226 159 167 177 211 152 234 144 161 143 169 87 221 287 243 139 204 190 180 166 151 139 122 111 99 83 61 46 51 62 70 66 60 72 83 88 89 88 82 66 65 55 51 47
246 139 158 191 102 163 146 82 61 67 112 249 208 186 231 191 195 170 177 175 167 157 148 139 121 113 90 60 67 81 87 75 72 76 79 89 94 95 84 67 60 48 42 41
266 210 194 143 97 66 154 121 79 331 230 229 65 180 256 184 176 173 172 178 173 166 163 160 155 141 124 116 101 95 96 90 88 90 87 88 88 86 84 81 71 58 42 35
180 268 168 190 173 174 184 166 170 204 199 230 112 227 254 5 268 172 169 168 160 168 172 172 169 156 147 139 122 116 112 109 99 95 93 88 88 88 88 78 69 57 38 21
175 267 162 165 152 144 181 197 160 108 32 57 218 273 229 96 53 151 163 159 175 179 180 178 175 169 158 151 146 135 126 115 108 105 97 77 59 55 44 38 36 27 24 4
213 195 228 175 113 22 171 155 105 12 184 253 266 263 238 199 183 170 173 179 183 180 180 183 181 172 168 156 147 139 125 108 101 92 78 74 63 50 44 36 25 16 0 351
155 168 256 123 216 176 150 173 85 135 161 184 234 252 215 196 178 183 185 185 183 183 186 185 186 176 171 155 158 134 130 110 95 77 66 63 60 59 51 47 25 4 355 3
189 120 177 211 297 310 194 188 167 167 211 218 149 260 357 234 175 174 183 189 191 187 182 183 182 176 161 171 161 144 151 129 102 93 104 108 94 66 52 31 18 15 13 7
173 185 131 320 322 306 211 195 137 98 82 190 154 257 61 100 156 186 185 195 188 182 175 171 174 181 176 176 161 165 155 128 127 121 116 111 94 52 31 18 11 10 360 351
101 162 207 220 187 144 181 181 178 168 172 169 225 229 234 190 185 190 200 190 183 181 183 188 181 186 183 172 164 158 140 139 134 127 121 93 61 39 28 23 12 355 344 332
111 204 163 88 47 66 128 155 179 196 206 200 197 220 202 198 202 204 198 176 179 187 187 186 187 188 174 165 165 152 149 143 145 141 112 82 58 44 32 14 354 338 331 330
43 159 136 146 40 44 305 221 200 231 17 263 174 259 187 161 121 154 185 179 187 192 190 188 188 179 178 178 171 163 155 151 165 128 88 65 45 27 6 352 344 337 333 331
147 134 120 201 33 63 292 218 197 188 189 192 215 239 169 198 205 195 182 180 188 184 178 184 189 183 177 179 167 161 154 155 133 97 83 58 40 7 352 340 334 328 322 319
141 117 87 135 129 217 258 23 13 217 200 204 151 212 184 191 116 117 151 182 169 162 179 183 170 162 159 141 136 134 146 138 121 107 96 82 45 344 336 332 323 316 316 313
2 134 140 162 204 331 229 193 171 168 244 206 211 191 158 107 89 236 190 163 186 181 168 167 157 152 145 151 145 141 141 137 132 138 150 121 25 327 327 313 316 314 311 311
39 2 193 159 180 205 240 239 195 122 278 219 205 164 159 138 163 229 181 170 167 162 152 151 149 133 146 154 145 144 152 152 168 163 142 120 329 298 305 313 311 309 305 304
144 163 216 191 216 275 198 186 171 117 238 160 172 150 148 183 193 189 131 155 157 154 153 134 150 169 166 146 147 155 152 182 157 141 139 111 12 330 308 310 307 303 296 296
166 166 194 100 122 260 148 76 166 197 99 159 166 172 182 146 154 145 167 156 163 163 156 158 153 161 151 150 151 157 177 149 144 147 131 26 344 319 305 289 291 288 292 293
233 185 179 185 209 215 189 171 199 164 161 190 166 177 176 155 179 177 183 176 185 177 168 160 163 152 154 157 158 162 170 153 147 134 155 255 283 279 277 274 287 297 290 286
248 160 182 94 224 226 214 238 256 203 203 155 129 151 164 175 186 189 165 176 177 176 180 159 154 171 177 172 173 161 153 141 138 161 222 257 250 276 265 284 286 280 284 290
183 129 142 288 273 298 255 229 221 228 140 136 156 173 201 189 196 171 187 196 195 184 166 171 185 187 185 168 171 159 151 143 159 181 226 247 262 270 287 275 273 279 272 274
184 160 162 208 205 190 220 214 206 198 201 200 201 205 208 182 205 187 203 201 186 186 165 179 188 178 174 170 171 159 150 155 162 193 217 233 259 262 279 284 290 295 303 305